Overview Statistics Trail Chart Weather Telemetry Raw packets
 

This is the latest recevied weather packets stored in our database for station/object W8KVG. If no packets are shown the sender has not sent any weather packets the latest 10 day(s).

<< 28 29 30 31 32 33 34 >>
Time Temp. Humidity Pressure Rain* Wind** Luminosity Snow
1777758403 5.56° C 75% 1014.9 hPa 0 mm - 52 W/m² -
1777758100 6.11° C 75% 1014.9 hPa 0 mm - 44 W/m² -
1777757797 6.11° C 73% 1014.8 hPa 0 mm - 60 W/m² -
1777757494 6.11° C 74% 1014.8 hPa 0 mm - 49 W/m² -
1777757193 6.11° C 75% 1015.1 hPa 0 mm - 57 W/m² -
1777756891 6.67° C 72% 1014.8 hPa 0 mm - 87 W/m² -
1777756586 6.67° C 72% 1014.8 hPa 0 mm - 96 W/m² -
1777756283 6.67° C 73% 1014.8 hPa 0 mm - 127 W/m² -
1777755998 6.67° C 72% 1014.8 hPa 0 mm - 175 W/m² -
1777755672 6.67° C 71% 1014.6 hPa 0 mm - 336 W/m² -
1777755369 6.11° C 73% 1014.5 hPa 0 mm - 210 W/m² -
1777755066 6.67° C 74% 1014.6 hPa 0 mm - 98 W/m² -
1777754763 6.67° C 73% 1014.6 hPa 0 mm - 107 W/m² -
1777754460 7.22° C 73% 1014.7 hPa 0 mm - 242 W/m² -
1777754157 6.11° C 74% 1014.8 hPa 0 mm - 564 W/m² -
1777753855 6.11° C 78% 1014.8 hPa 0 mm - 204 W/m² -
1777753550 5.56° C 78% 1015 hPa 0 mm - 191 W/m² -
1777753248 5.56° C 78% 1014.8 hPa 0 mm - 165 W/m² -
1777752943 5.56° C 79% 1014.6 hPa 0 mm - 131 W/m² -
1777752635 5.56° C 81% 1014.6 hPa 0 mm - 89 W/m² -
1777752331 5.56° C 81% 1015 hPa 0 mm - 89 W/m² -
1777752029 5.56° C 81% 1014.8 hPa 0 mm - 86 W/m² -
1777751726 5.56° C 81% 1014.8 hPa 0 mm - 96 W/m² -
1777751422 5.56° C 79% 1014.7 hPa 0 mm - 76 W/m² -
1777751119 5.56° C 80% 1014.8 hPa 0 mm - 81 W/m² -

* Rain latest hour (hover to see other rain measurements)
** Current wind speed in m/s (hover to see current wind gust speed)